Regional Weather Roundup
Issued by NWS

Home | Current Version | Previous Version | Text Only | Print | Product List | Glossary On
Versions: 1 2 3 4 5 6 7 8 9 10 11 12 13 14 15 16 17 18 19 20 21 22 23 24 25 26 27 28 29 30 31 32 33 34 35 36 37 38 39 40 41 42 43 44 45 46 47 48 49 50
000
ASHW40 PHFO 131612
RWRHI

WEATHER ROUNDUP FOR HAWAII
NATIONAL WEATHER SERVICE HONOLULU HI
600 AM HST SAT FEB 13 2016

THIS IS AN AUTOMATED REPORT THAT HAS NOT BEEN QUALITY CONTROLLED.

NOTE..."FAIR" INDICATES FEW OR NO CLOUDS BELOW 12,000 FEET WITH NO
SIGNIFICANT WEATHER AND/OR OBSTRUCTIONS TO VISIBILITY.

* - THESE SITES REPORT LIMITED FIELDS

HIZ001>004-131700-
KAUAI-NIIHAU-

CITY           SKY/WX    TMP DP  RH WIND       PRES   REMARKS
LIHUE APT      MOCLDY    68  64  88 W7        30.05R
PORT ALLEN*      N/A     72 N/A N/A E10         N/A
POIPU*           N/A     66 N/A N/A N3          N/A
PRINCEVILLE*     N/A     66 N/A N/A SE3         N/A
KOKOLE POINT*  NOT AVBL
MOLOAA DAIRY*    N/A     70  68  94 SE3         N/A
WAIMEA HTS*    NOT AVBL
PUU OPAE*      NOT AVBL
PUU LUA*       NOT AVBL
MAKAHA RIDGE*  NOT AVBL
$$

HIZ005>011-131700-
OAHU-

CITY           SKY/WX    TMP DP  RH WIND       PRES   REMARKS
HONOLULU       PTCLDY    74  66  76 E9        30.04R
KALAELOA       CLEAR     68  63  84 VRB5      30.06R
KANEOHE MCB    PTCLDY    74  67  78 VRB5      30.03R
WHEELER FIELD  FAIR      63  62  96 W6        30.05R
BELLOWS*       NOT AVBL
KAHUKU*        NOT AVBL
WHEELER*       NOT AVBL
WAIANAE HARBOR NOT AVBL
DILLINGHAM*      N/A    N/A N/A N/A MISG        N/A
KAHUKU TRN*      N/A     82  79  89 E5G12       N/A  HX  93
KAWAILOA*        N/A     70  63  78 E12G18      N/A
KII*             N/A     73  68  83 E12G18      N/A
MAKUA RANGE*     N/A     82  75  78 SE1G8       N/A
OAHU FOREST NW NOT AVBL
SCHOFIELD BRK*   N/A     79  77  94 MISG        N/A
SCHOFIELD S*   NOT AVBL
WAIANAE VLY*   NOT AVBL
KUAOKALA*      NOT AVBL
HONOULIUULI*   NOT AVBL
MOKUOLOE IS*   NOT AVBL
PALEHUA*       NOT AVBL
WAIAWA PHB*    NOT AVBL
$$

HIZ012>013-131700-
MOLOKAI-

CITY           SKY/WX    TMP DP  RH WIND       PRES   REMARKS
MOLOKAI AIRPT  CLEAR     71  65  81 NE8       30.05S
KALAUPAPA      NOT AVBL
MAKAPULAPAI*   NOT AVBL
MOLOKAI 1*     NOT AVBL
PUU ALII*      NOT AVBL
$$

HIZ016-131700-
KAHOOLAWE-

CITY           SKY/WX    TMP DP  RH WIND       PRES   REMARKS
KAHOOLAWE*     NOT AVBL
HAKIOAWA*      NOT AVBL
HONOKANAIA*      N/A     73  65  77 E15G22    29.96F
KANELOA*         N/A     70  64  83 E15G26    30.09S
KEALIALALO*    NOT AVBL
LUA MAKIKA*    NOT AVBL
$$

HIZ014>015-131700-
LANAI-

CITY           SKY/WX    TMP DP  RH WIND       PRES   REMARKS
LANAI CITY     FAIR      62  60  93 E7        30.10R
LANAI 1*       NOT AVBL
$$

HIZ017>028-131700-
MAUI-

CITY           SKY/WX    TMP DP  RH WIND       PRES   REMARKS
KAHULUI        CLEAR     63  60  90 S3        30.04R
KAPALUA-W MAUI PTCLDY    68  63  83 SE6       30.05
HANA AIRPORT   NOT AVBL
HANA*            N/A     73 N/A N/A E6G13       N/A
HALEAKALA SUMM   N/A     43  18  36 E26G39      N/A
MAALAEA BAY*   NOT AVBL
HALEAKALA*     NOT AVBL
KAUPO GAP*     NOT AVBL
KULA 1*          N/A     48  39  71 NE3         N/A
$$

HIZ023>026-131700-
BIG ISLAND OF HAWAII COAST AND LOWER SLOPES-

CITY           SKY/WX    TMP DP  RH WIND       PRES   REMARKS
KAILUA KONA    NOT AVBL
HILO           MOCLDY    68  61  78 CALM      30.08R
HONOKAA*         N/A     59 N/A N/A VRB1        N/A
KAWAIHAE MWT*    N/A     70 N/A N/A NE6         N/A
KAWAIHAE*      NOT AVBL
SOUTH POINT*     N/A     66 N/A N/A N12         N/A
UPOLU AIRPORT*   N/A    N/A N/A N/A E8          N/A
KAMUELA*       NOT AVBL
HAKALAU*         N/A     46  43  87 SW7         N/A
KALOKO-HONOKO* NOT AVBL
PALI 2*          N/A     61  55  82 N8G18       N/A
KEALAKOMO*       N/A    N/A N/A N/A N10         N/A
KAUPULEHU*     NOT AVBL
KAPAPALA*        N/A     57  53  86 N3G9        N/A
LOWER KAHUKU*  NOT AVBL
PUHE CS*       NOT AVBL
PUHO CS*       NOT AVBL
PTA KEAMUKU*     N/A     52  46  82 CALM        N/A
WAIKOLOA*      NOT AVBL
$$

HIZ027>028-131700-
BIG ISLAND OF HAWAII INTERIOR AND SUMMMITS-

CITY           SKY/WX    TMP DP  RH WIND       PRES   REMARKS
BRADSHAW FIELD CLOUDY    50  41  69 SE10G22   30.31R
MK VISITOR CEN   N/A     48  -4  11 SE17        N/A
MAUNA KEA*       N/A     37 -18   8 S10         N/A
MAUNA LOA*     NOT AVBL
MAUNA LOA 1*   NOT AVBL
PTA KIPUKA*      N/A     66  55  68 E5G10       N/A
PTA RANGE 17*    N/A     73  66  78 S15G28      N/A
PTA WEST*        N/A     46  36  66 S12G17      N/A
NENE CABIN*    NOT AVBL
AHUMOA*        NOT AVBL
PTA PORTABLE*  NOT AVBL
PUU MALI*        N/A    N/A N/A N/A S7          N/A
$$

HIC003-131700-
NORTHWEST ISLANDS-

CITY           SKY/WX    TMP DP  RH WIND       PRES   REMARKS
MIDWAY ISLAND  MOCLDY    61  48  63 W22G28    29.90
MIDWAY NOS*    NOT AVBL
FRENCH FRIGATE NOT AVBL
$$

PHZ110>124-180-131700-
BUOY REPORTS

STATION/POSITION TIME  TEMP    WIND        PRES    WAVE   SWELL
                       AIR SEA DIR/SP/G            HT/PER HT/DIR
                 (UTC) (F)     (DEG/KT/KT) (MB)    (FT/S) (FT/D)
BUOY 51001       1500   74 75  160/ 14/ 16 1016.0R
BUOY 51101       1550   75 75  170/ 14/ 16 1016.0R   4/11   3/300
BUOY 51100       NOT AVBL
BUOY 51002       1550   77 77   80/ 19/ 23 1014.8R   9/14   7/330
BUOY 51003       1550   77 78   90/ 17/ 23 1015.5R   7/13   5/350
BUOY 51004       1550   75 77   70/ 17/ 23 1016.5R  11/15   8/310
BARBERS PT BUOY  NOT AVBL
WAIMEA BAY BUOY  1504      77                N/A     5/12   3/330
KAILUA BAY BUOY  1511      77                N/A     6/12   3/360
LANAI BUOY       NOT AVBL
BARBERS PT 2     1603      78                N/A     4/13   3/310
PAUWELA MAUI     1507      76                N/A     7/13   5/340
HILO             1512      77                N/A     8/13   5/350
KANEOHE BAY BUOY 1506      76                N/A     5/13   3/350
HANALEI KAUAI    1601      77                N/A     6/11   3/330
KAHULUI HARBOR   NOT AVBL
HONOLULU HARBOR  1500   74 77   CALM  /  5 1017.4F
KILO NALU        NOT AVBL
HILO HARBOR      1500   69 76  210/  5/  7 1017.5S
MOKUOLOE         1500   75 77   90/  7/  9 1017.1F
NAWILIWILI       1500   64 78  250/  5/  5 1016.8F
WHOTS BUOY       NOT AVBL
BUOY 51028       NOT AVBL
$$

......................KEY........................................
  SKY/WX - SKY CONDITIONS/PRESENT WEATHER
  TMP    - TEMPERATURE IN FAHRENHEIT
  DWPT   - DEWPOINT IN FAHRENHEIT
  RH     - RELATIVE HUMIDITY IN PERCENT
  WIND   - DIRECTION AND SPEED /MPH FOR ISLANDS...KTS FOR BUOYS/
  PRES   - MEAN SEA LEVEL PRESSURE IN INCHES OF HG
  VSB    - VISIBILITY IN MILES
  HX     - HEAT INDEX
  WCI    - WIND CHILL INDEX
  VRB    - VARIABLE WIND DIRECTION
  N/A    - NOT AVAILABLE



USA.gov is the U.S. government's official web portal to all federal, state and local government web resources and services.